Deer Park, WA
on Friday, December 28, 2012

Friday
Previous Day Next Day
Daily Summary
 ActualAverageRecord
Temperature
Mean Temperature °F 25°F  
Max Temperature 31°F 31°F 55°F (2008)
Min Temperature 24°F 18°F 10°F (2003)
Degree Days
Heating Degree Days 37 40  
Month to date heating degree days 916 1103  
Since 1 July heating degree days 2653 3106  
Cooling Degree Days 0 0  
Month to date cooling degree days 0 0  
Year to date cooling degree days 232 187  
Moisture
Dew Point 27°F   
Average Humidity 89    
Maximum Humidity 92    
Minimum Humidity 85    
Precipitation
Precipitation 0.00 in 0.09 in 0.45 in (2010)
Month to date precipitation 2.46 2.60  
Year to date precipitation 26.57 21.99  
Wind
Wind Speed 1 mph   
Max Wind Speed 7 mph   
Max Gust Speed 8 mph   
Visibility 9 miles   
Events     

Key: T is trace of precipitation, MM is missing value
Source: NWS Daily Summary
Time(PST)TemperatureDew PointHumidity Pressure Visibility Wind DirectionWind SpeedGust SpeedPrecipitationEvents Conditions
12:08 AM 26.6°F 24.8°F 93% 30.11 in 10.0 miles South 5.8 mph - N/A   Overcast
12:31 AM 26.6°F 24.8°F 93% 30.11 in 10.0 miles South 5.8 mph - N/A   Overcast
12:53 AM 28.0°F 26.1°F 92% 30.19 in 10.0 miles SW 4.6 mph - N/A   Overcast
1:53 AM 28.0°F 26.1°F 92% 30.21 in 10.0 miles WSW 5.8 mph - N/A   Overcast
3:01 AM 28.4°F 26.6°F 93% 30.13 in 10.0 miles Calm Calm - N/A   Overcast
3:53 AM 28.0°F 27.0°F 96% 30.21 in 6.0 miles Calm Calm - N/A   Overcast
4:44 AM 28.4°F 26.6°F 93% 30.14 in 8.0 miles Calm Calm - N/A   Overcast
4:53 AM 28.0°F 27.0°F 96% 30.22 in 9.0 miles Calm Calm - N/A   Overcast
5:14 AM 28.4°F 26.6°F 93% 30.14 in 10.0 miles Calm Calm - N/A   Overcast
5:53 AM 28.0°F 26.1°F 92% 30.22 in 9.0 miles Calm Calm - N/A   Overcast
6:02 AM 28.4°F 26.6°F 93% 30.14 in 9.0 miles Calm Calm - N/A   Overcast
6:53 AM 28.0°F 27.0°F 96% 30.22 in 9.0 miles Calm Calm - N/A   Overcast
7:43 AM 28.4°F 26.6°F 93% 30.15 in 7.0 miles Calm Calm - N/A   Overcast
7:53 AM 28.0°F 27.0°F 96% 30.23 in 6.0 miles Calm Calm - N/A   Overcast
8:53 AM 28.9°F 27.0°F 92% 30.24 in 5.0 miles Calm Calm - N/A   Overcast
9:31 AM 28.4°F 28.4°F 100% 30.17 in 2.5 miles Calm Calm - N/A   Overcast
9:40 AM 30.2°F 28.4°F 93% 30.17 in 3.0 miles North - - N/A   Overcast
9:53 AM 30.0°F 28.0°F 92% 30.24 in 5.0 miles North - - N/A   Overcast
10:35 AM 30.2°F 28.4°F 93% 30.17 in 8.0 miles Calm Calm - N/A   Overcast
10:53 AM 30.0°F 28.0°F 92% 30.24 in 5.0 miles Calm Calm - N/A   Overcast
11:18 AM 30.2°F 28.4°F 93% 30.17 in 8.0 miles Calm Calm - N/A   Overcast
11:53 AM 30.0°F 28.0°F 92% 30.23 in 8.0 miles Calm Calm - N/A   Overcast
12:20 PM 30.2°F 28.4°F 93% 30.16 in 10.0 miles North - - N/A   Overcast
12:48 PM 30.2°F 28.4°F 93% 30.16 in 10.0 miles Calm Calm - N/A   Overcast
12:53 PM 30.9°F 28.0°F 89% 30.23 in 10.0 miles Calm Calm - N/A   Overcast
1:53 PM 30.0°F 28.0°F 92% 30.24 in 6.0 miles Calm Calm - N/A   Overcast
2:53 PM 30.9°F 28.0°F 89% 30.24 in 10.0 miles Calm Calm - N/A   Overcast
3:26 PM 30.2°F 28.4°F 93% 30.17 in 10.0 miles Calm Calm - N/A   Overcast
3:53 PM 30.0°F 28.0°F 92% 30.25 in 10.0 miles Calm Calm - N/A   Overcast
5:53 PM 30.0°F 27.0°F 88% 30.25 in 10.0 miles North 5.8 mph - N/A   Overcast
6:53 PM 28.0°F 26.1°F 92% 30.25 in 10.0 miles North 4.6 mph - N/A   Overcast
7:14 PM 28.4°F 26.6°F 93% 30.17 in 10.0 miles NNW 3.5 mph - N/A   Overcast
7:53 PM 27.0°F 25.0°F 92% 30.25 in 10.0 miles Calm Calm - N/A   Mostly Cloudy
8:53 PM 27.0°F 25.0°F 92% 30.25 in 10.0 miles Calm Calm - N/A   Overcast
9:53 PM 27.0°F 25.0°F 92% 30.25 in 10.0 miles Calm Calm - N/A   Overcast
10:37 PM 26.6°F 24.8°F 93% 30.17 in 10.0 miles North 3.5 mph - N/A   Overcast
10:49 PM 26.6°F 24.8°F 93% 30.17 in 10.0 miles Calm Calm - N/A   Overcast
10:53 PM 26.1°F 24.1°F 92% 30.25 in 10.0 miles Calm Calm - N/A   Overcast
11:53 PM 26.1°F 24.1°F 92% 30.24 in 10.0 miles NNE 3.5 mph - N/A   Clear
Moon Phase
Dec. 28 Jan. 04 Jan. 11 Jan. 18 Jan. 26
Sunrise:07:39 AM (PST) Moon Rise:04:50 PM (PST)12/28
Sunset:04:04 PM (PST) Moon Set:07:32 AM (PST)12/28

Copyright © 2014 The Weather Underground, Inc.